Location: *
(46.1200°N, 11.2700°E)
Time: 09:18:53
(UTC+00:00)

Resurs 01 Rocket - Pass Details

Date: 02 March 2021
Orbit: 635 x 643 km, 98.0° (Epoch: 18 April)

Event Time Altitude Azimuth Distance (km) Brightness Sun altitude
Exits shadow 20:26:55 21° 321° (NW) 1,451 4.0 -34.9°
Drops below altitude 10° 20:28:32 10° 333° (NNW) 2,033 4.8 -35.2°
Sets 20:30:52 0° 340° (NNW) 2,947 5.7 -35.5°
